Regional Weather Roundup
Issued by NWS Northern Indiana

Home | Current Version | Previous Version | Graphics & Text | Print | Product List | Glossary On
Versions: 1 2 3 4 5 6 7 8 9 10 11 12 13 14 15 16 17 18 19 20 21 22 23 24 25 26 27 28 29 30 31 32 33 34 35 36 37 38 39 40 41 42 43 44 45 46 47 48 49 50
000
ASUS43 KIWX 261700
RWRIWX

KIWX WEATHER ROUNDUP
NATIONAL WEATHER SERVICE NORTHERN INDIANA
100 PM EDT TUE JUL 26 2016

NOTE: "FAIR" INDICATES FEW OR NO CLOUDS BELOW 12,000 FEET WITH NO
SIGNIFICANT WEATHER AND/OR OBSTRUCTIONS TO VISIBILITY.

* THESE STATIONS ARE NOT UNDER NWS QUALITY CONTROL. THEY ALSO MAY NOT
  REPORT WEATHER SUCH AS PRECIPITATION OR FOG.

INZ001>027-261800-
NORTHERN INDIANA

CITY           SKY/WX    TMP DP  RH WIND       PRES   REMARKS
KNOX*          SUNNY     81  54  39 SE5       30.07S
SOUTH BEND     MOSUNNY   82  62  50 NW6       30.08S
ELKHART*       MOSUNNY   82  68  61 E6        30.08F
GOSHEN         SUNNY     84  58  40 E6        30.07F
MONTICELLO*    CLOUDY    80  63  55 SE7       30.06S
ANGOLA*          N/A     82  75  78 VRB7      30.08F
FORT WAYNE     PTSUNNY   83  60  45 E7        30.08S
PERU/GRISSOM   CLOUDY    81  65  58 VRB5      30.06S

$$
INZ028>050-261800-
CENTRAL INDIANA

CITY           SKY/WX    TMP DP  RH WIND       PRES   REMARKS
LAFAYETTE      CLOUDY    78  68  71 E6        30.06S
KOKOMO*        PTSUNNY   81  64  57 SE6       30.07F
MUNCIE*        CLOUDY    81  65  58 VRB6      30.07F
INDIANAPOLIS   LGT RAIN  73  70  90 SE7       30.07F FOG

$$
MIZ043>046-050>051-056>058-064>065-071>073-077>080-261800-
SOUTHWEST LOWER MICHIGAN

CITY           SKY/WX    TMP DP  RH WIND       PRES   REMARKS
BATTLE CREEK     N/A     77  60  55 CALM      30.08F
BENTON HARBOR  SUNNY     82  63  52 NW6       30.07S
COLDWATER*     PTSUNNY   82  60  47 CALM      30.08F
HOLLAND          N/A     83  64  52 VRB6      30.07F
GRAND RAPIDS   MOSUNNY   81  60  48 SW3       30.06F
KALAMAZOO      MOSUNNY   84  60  44 N3        30.08F
STURGIS*       MOSUNNY   80  62  55 CALM      30.07F
THREE RIVERS*  FAIR      82  61  48 CALM      30.08F

$$
OHZ001>008-015>018-024>025-261800-
NORTHWEST OHIO

CITY           SKY/WX    TMP DP  RH WIND       PRES   REMARKS
DEFIANCE       SUNNY     84  62  47 VRB5      30.07F
FINDLAY        MOSUNNY   84  61  45 CALM      30.06S
TOLEDO EXPRESS MOSUNNY   84  59  42 NE6       30.06F
TOLEDO METCALF SUNNY     83  59  44 E6        30.07F
LIMA           MOSUNNY   84  66  54 CALM      30.06F

$$
AND FOR LAKE MICHIGAN COASTAL AND OPEN LAKE BUOY OBSERVATIONS

STATION/POSITION TEMP    WIND        PRES    VSBY  WAVE
                 AIR SEA DIR/SP/G                  HT/PER
                 (F)     (DEG/KT/KT) (MB)    (MI)  (FT/S)
CALUMET HARBOR    77      60/  5/  5 1017.7S
MICHIGAN CITY     76      10/ 10/ 10   N/A
BURNS HARBOR      76     360/  3/  5 1018.6S
SAINT JOSEPH      78     330/  4/  4 1018.6F
SOUTH LAKE BUOY   74 75   CALM  /  2 1017.8          0
4 MI NW BRIDGMAN  76 78  320/  6/  6 1018.1S         0
MICHIGAN CITY     76 76   30/  6/  8   N/A           0

$$
&&




USA.gov is the U.S. government's official web portal to all federal, state and local government web resources and services.